Location: Eastview
(35.0756°N, 88.5453°W)
Time: 06:57:52
(UTC+00:00)

Cosmos 2360 Rocket - Pass Details

Date: 22 November 2019
Orbit: 832 x 847 km, 71.0° (Epoch: 08 December)

Event Time Altitude Azimuth Distance (km) Brightness Sun altitude
Rises 23:25:21 0° 153° (SSE) 3,373 5.2 -8.5°
Reaches altitude 10° 23:28:55 10° 130° (SE) 2,447 4.3 -9.2°
Maximum altitude 23:31:50 14° 98° (E) 2,150 3.8 -9.8°
Enters shadow 23:33:37 13° 78° (ENE) 2,272 3.8 -10.1°
